Starlink 1039

operational
NORAD ID: 44744 Int'l Des: 2019-074 Owner: SPXS Country: US Constellation: starlink
LEOCIRCULAR

Über Starlink 1039

Beschreibung wird geladen...

Live-Position

3D-Globus wird geladen...

Nächste Überflüge

Höhenverlauf

Altitude vs Time

uPlot chart will show altitude changes over time

Zweizeiliger Elementsatz

1 44744U 19074AH 25352.05413631 .00028564 00000-0 15010-2 0 9998
2 44744 53.0489 228.3893 0003380 63.4186 296.7153 15.15489078335957
Epoch: 18. Dez. 2025 • Age: 12 hours

Aktueller Status

Höhe 520.3 km
Geschwindigkeit 7.61 km/s
Subsatellitenpunkt 27.64°N, 100.51°E
Startdatum 11. Nov. 2019
Alter 6 years
Typ internet

Technische Details

Klassifizierung Payload
Masse 260.00 kg
Trockenmasse 248.00 kg
Gesamtmasse 260.00 kg
Länge 0.20 m
Durchmesser 2.80 m
Spannweite 9.00 m
Form Box + pan
Hersteller SPXS
Bus-Typ Starlink
Phasenstatus In Orbit
Besitzer/Staat SPXS/US

Große Konstellationen

Loading constellations...